Location: Unspecified
(0.0000°N, 0.0000°E)
Time: 07:41:10
(UTC+00:00)

CZ-4B DEB - Visible Passes

Search period start: 11 November 2024 00:00
Search period end: 21 November 2024 00:00
Orbit: 538 x 568 km, 97.9° (Epoch: 10 November)

Date Brightness Start Highest point End Pass type
(mag) Time Alt. Az. Time Alt. Az. Time Alt. Az.
11 Nov ? 18:18:10 10° S 18:22:03 53° WSW 18:25:52 10° NNW visible
12 Nov ? 18:14:45 10° S 18:18:40 61° WSW 18:22:32 10° NNW visible
13 Nov ? 18:11:21 10° S 18:15:17 70° WSW 18:19:11 10° NNW visible
14 Nov ? 18:07:55 10° S 18:11:53 80° W 18:15:47 10° NNW visible
